Location: Wellington
(41.3000°S, 174.7830°E)
Time: 14:55:13
(UTC+13:00)

Cosmos 1733 Rocket - Pass Details

Date: 24 January 2019
Orbit: 604 x 627 km, 82.5° (Epoch: 15 February)

Event Time Altitude Azimuth Distance (km) Brightness Sun altitude
Rises 22:51:03 0° 177° (S) 2,928 7.2 -18.8°
Reaches altitude 10° 22:53:37 10° 164° (SSE) 2,009 6.1 -19.1°
Maximum altitude 22:57:23 27° 106° (ESE) 1,216 4.3 -19.6°
Enters shadow 22:57:44 26° 97° (E) 1,224 4.3 -19.6°
